Location: Home
(42.5358°N, 72.7383°W)
Time: 15:05:59
(UTC-05:00)

Vanguard 1 - Pass Details

Date: 09 December 2021
Orbit: 652 x 3830 km, 34.2° (Epoch: 19 January)

Event Time Altitude Azimuth Distance (km) Brightness Sun altitude
Rises 04:00:03 0° 282° (WNW) 7,945 - -33.9°
Reaches altitude 10° 04:05:54 10° 277° (W) 6,936 - -32.9°
Exits shadow 04:19:46 36° 249° (WSW) 4,704 12.9 -30.3°
Maximum altitude 04:26:18 43° 216° (SW) 4,045 12.8 -29.1°
Drops below altitude 10° 04:40:26 10° 150° (SSE) 4,902 14.0 -26.5°
Sets 04:43:47 0° 143° (SE) 5,532 14.5 -25.9°
